DW1174 Weather Reports


Display with metric or nautical units.
time (UTC)temp
F
wind
direction
speed
MPH
gust
MPH
rain 1hr
in
rain 24hr
in
rain mn
in
humidity
%
barometer
mb
20260901211521 88 203 0.0 1.0 0.00 0.01 0.00 71 1014.3
20260901210951 88 176 0.0 0.0 0.00 0.01 0.00 73 1014.3
20260901210450 88 176 0.0 0.0 0.00 0.01 0.00 72 1014.3
20260901205943 88 175 0.0 2.0 0.00 0.01 0.00 72 1014.4
20260901205446 88 175 0.0 7.0 0.00 0.01 0.00 71 1014.4
20260901204922 88 242 0.0 7.0 0.00 0.01 0.00 70 1014.4
20260901204420 89 196 0.0 3.0 0.00 0.01 0.00 70 1014.3
20260901204112 89 197 0.0 5.0 0.00 0.01 0.00 68 1014.4
20260901203613 90 317 0.0 5.0 0.00 0.01 0.00 67 1014.5
20260901202841 90 163 0.0 3.0 0.00 0.01 0.00 68 1014.4
20260901202317 90 185 1.0 3.0 0.00 0.01 0.00 68 1014.4
20260901201808 90 346 1.0 6.0 0.00 0.01 0.00 66 1014.3
20260901201303 90 346 0.0 6.0 0.00 0.01 0.00 68 1014.3
20260901200759 90 346 0.0 1.0 0.00 0.01 0.00 68 1014.3
20260901200511 90 345 0.0 3.0 0.00 0.01 0.00 70 1014.3
20260901195748 89 343 0.0 3.0 0.00 0.01 0.00 69 1013.9
20260901195244 89 12 0.0 2.0 0.00 0.01 0.00 73 1014.0
20260901194739 89 12 0.0 3.0 0.00 0.01 0.00 75 1014.0
20260901194240 89 12 1.0 3.0 0.00 0.01 0.00 75 1014.0
20260901193726 89 12 0.0 3.0 0.00 0.01 0.00 74 1013.9
20260901193223 89 296 0.0 0.0 0.00 0.01 0.00 74 1014.0
20260901192719 89 298 0.0 0.0 0.00 0.01 0.00 74 1013.9
20260901192216 89 298 0.0 1.0 0.00 0.01 0.00 73 1014.0
20260901191712 89 298 0.0 1.0 0.00 0.01 0.00 73 1014.1
20260901191207 89 298 0.0 1.0 0.00 0.01 0.00 73 1014.1
20260901190710 90 298 0.0 3.0 0.00 0.01 0.00 71 1014.1
20260901190155 90 292 0.0 3.0 0.00 0.01 0.00 70 1014.3
20260901185656 89 292 0.0 3.0 0.00 0.01 0.00 72 1014.4
20260901185411 89 292 0.0 3.0 0.00 0.01 0.00 73 1014.4
20260901184645 88 293 0.0 2.0 0.00 0.01 0.00 74 1014.4
20260901184627 88 293 0.0 1.0 0.00 0.01 0.00 74 1014.5
20260901183631 87 318 0.0 2.0 0.00 0.01 0.00 75 1014.3
20260901183340 87 318 0.0 2.0 0.00 0.01 0.00 74 1014.3
20260901182552 88 318 0.0 1.0 0.00 0.01 0.00 73 1014.4
20260901182049 88 318 0.0 1.0 0.00 0.01 0.00 73 1014.5
20260901181534 88 317 0.0 3.0 0.00 0.01 0.00 73 1014.5
20260901181037 88 318 0.0 3.0 0.00 0.01 0.00 73 1014.6
20260901180532 88 319 0.0 0.0 0.00 0.01 0.00 72 1014.5
20260901180027 89 319 0.0 2.0 0.00 0.01 0.00 71 1014.7
20260901175524 89 319 0.0 2.0 0.00 0.01 0.00 71 1014.7
20260901175014 88 319 0.0 3.0 0.00 0.01 0.00 71 1014.7
20260901174510 88 329 0.0 6.0 0.00 0.01 0.00 71 1014.7
20260901174000 88 339 0.0 6.0 0.00 0.01 0.00 70 1014.7
20260901173459 89 246 1.0 3.0 0.00 0.01 0.00 70 1014.7
20260901172952 88 248 1.0 5.0 0.00 0.01 0.00 70 1014.7
20260901172448 88 259 0.0 5.0 0.00 0.01 0.00 71 1014.8
20260901172201 88 260 0.0 4.0 0.00 0.01 0.00 71 1014.7
20260901171444 87 153 1.0 4.0 0.00 0.01 0.00 72 1014.9
20260901171140 87 153 1.0 4.0 0.00 0.01 0.00 71 1014.9
20260901170411 87 133 1.0 4.0 0.00 0.01 0.00 72 1014.9
20260901165905 87 130 1.0 4.0 0.00 0.01 0.00 72 1014.9
20260901165403 86 120 1.0 5.0 0.00 0.01 0.00 72 1015.0
20260901165336 86 105 1.0 7.0 0.00 0.01 0.00 73 1015.0
20260901164838 86 20 1.0 7.0 0.00 0.01 0.00 73 1015.2
20260901163841 86 265 1.0 3.0 0.00 0.01 0.00 73 1015.1
20260901163338 86 288 1.0 6.0 0.00 0.01 0.00 73 1015.1
20260901162829 86 284 0.0 6.0 0.00 0.01 0.00 74 1015.1
20260901162328 85 175 1.0 3.0 0.00 0.01 0.00 74 1015.0
20260901161811 85 185 1.0 4.0 0.00 0.01 0.00 75 1015.0
20260901161244 85 185 1.0 9.0 0.00 0.01 0.00 74 1015.1
20260901160732 85 199 2.0 9.0 0.00 0.01 0.00 74 1015.1
20260901160221 85 50 1.0 7.0 0.00 0.01 0.00 73 1015.1
20260901155945 85 151 1.0 6.0 0.00 0.01 0.00 75 1015.0
20260901155212 84 77 2.0 9.0 0.00 0.01 0.00 75 1015.0
20260901154714 84 62 2.0 9.0 0.00 0.01 0.00 75 1015.1
20260901154210 84 95 1.0 6.0 0.00 0.01 0.00 76 1015.1
20260901153714 84 14 1.0 4.0 0.00 0.01 0.00 76 1015.0
20260901153207 83 218 1.0 5.0 0.00 0.01 0.00 75 1014.9
20260901152707 83 180 1.0 4.0 0.00 0.01 0.00 77 1014.9
20260901152206 83 319 1.0 9.0 0.00 0.01 0.00 76 1014.9
20260901151700 83 9 1.0 9.0 0.00 0.01 0.00 75 1014.9
20260901151148 83 217 1.0 5.0 0.00 0.01 0.00 75 1015.0
20260901150637 83 309 1.0 5.0 0.00 0.01 0.00 76 1015.1
20260901150107 83 254 1.0 3.0 0.00 0.01 0.00 75 1015.3
20260901145600 83 282 1.0 5.0 0.00 0.01 0.00 75 1015.1
20260901145047 83 283 1.0 5.0 0.00 0.01 0.00 76 1015.1
20260901144545 83 12 1.0 6.0 0.00 0.01 0.00 77 1015.0
20260901144040 82 185 1.0 6.0 0.00 0.01 0.00 77 1015.1
20260901144035 82 351 1.0 5.0 0.00 0.01 0.00 79 1014.8
20260901143259 82 351 1.0 5.0 0.00 0.01 0.00 78 1014.6
20260901142537 82 292 0.0 4.0 0.00 0.01 0.00 79 1014.6
20260901142448 82 212 1.0 4.0 0.00 0.01 0.00 79 1014.5
20260901141508 81 212 1.0 4.0 0.00 0.01 0.00 80 1014.6
20260901141007 81 230 1.0 4.0 0.00 0.01 0.00 80 1014.6
20260901140451 80 159 0.0 6.0 0.00 0.01 0.00 82 1014.3
20260901135939 80 332 0.0 1.0 0.00 0.01 0.00 81 1014.4
20260901135632 80 269 0.0 4.0 0.00 0.01 0.00 82 1014.1
20260901134909 80 300 0.0 5.0 0.00 0.01 0.00 82 1014.3
20260901134409 80 254 1.0 5.0 0.00 0.01 0.00 82 1014.1
20260901133842 80 250 0.0 4.0 0.00 0.01 0.00 82 1014.1
20260901133342 80 240 0.0 4.0 0.00 0.01 0.00 83 1014.1
20260901132841 79 245 0.0 3.0 0.00 0.01 0.00 83 1014.4
20260901132338 79 246 0.0 0.0 0.00 0.01 0.00 84 1014.3
20260901132056 79 246 0.0 0.0 0.00 0.01 0.00 84 1014.3
20260901131310 79 246 0.0 3.0 0.00 0.01 0.00 84 1014.3
20260901130803 79 242 0.0 3.0 0.00 0.01 0.00 84 1014.6
20260901130253 79 240 0.0 0.0 0.00 0.01 0.00 85 1014.6
20260901125737 78 240 0.0 0.0 0.00 0.01 0.00 85 1014.7
20260901125233 78 240 0.0 0.0 0.00 0.01 0.00 85 1014.7
20260901124730 78 239 0.0 0.0 0.00 0.01 0.00 85 1014.7
20260901124210 78 239 0.0 2.0 0.00 0.01 0.00 85 1014.8
20260901123933 78 239 0.0 2.0 0.00 0.01 0.00 85 1014.8
20260901123422 78 238 0.0 0.0 0.00 0.01 0.00 85 1014.8
20260901122857 78 238 0.0 0.0 0.00 0.01 0.00 84 1014.7
20260901122339 78 238 0.0 0.0 0.00 0.01 0.00 84 1014.7
20260901121614 78 238 0.0 3.0 0.00 0.01 0.00 85 1014.6
20260901121102 78 229 0.0 5.0 0.00 0.01 0.00 85 1014.5
20260901120602 77 238 0.0 5.0 0.00 0.01 0.00 85 1014.4
20260901115534 77 238 0.0 4.0 0.00 0.01 0.00 86 1014.4
20260901115028 77 240 0.0 0.0 0.00 0.01 0.00 87 1014.3
20260901114503 76 240 0.0 0.0 0.00 0.01 0.00 87 1014.3
20260901113934 76 240 0.0 0.0 0.00 0.01 0.00 88 1014.3
20260901113427 76 238 0.0 0.0 0.00 0.01 0.00 88 1014.3
20260901112914 76 238 0.0 0.0 0.00 0.01 0.00 88 1014.1
20260901112624 76 238 0.0 0.0 0.00 0.01 0.00 88 1014.1
20260901112118 76 238 0.0 0.0 0.00 0.01 0.00 88 1014.0
20260901111357 76 238 0.0 0.0 0.00 0.01 0.00 88 1013.9
20260901110839 76 238 0.0 0.0 0.00 0.01 0.00 88 1013.9
20260901110335 76 238 0.0 0.0 0.00 0.01 0.00 88 1013.9
20260901105832 76 238 0.0 0.0 0.00 0.01 0.00 88 1013.9
20260901105547 76 238 0.0 0.0 0.00 0.01 0.00 88 1013.8
20260901105038 76 238 0.0 0.0 0.00 0.01 0.00 88 1013.9
20260901104311 76 238 0.0 0.0 0.00 0.01 0.00 88 1013.8
20260901103808 76 238 0.0 0.0 0.00 0.01 0.00 88 1013.7
20260901103306 76 238 1.0 3.0 0.00 0.01 0.00 88 1013.8
20260901103014 76 238 2.0 4.0 0.00 0.01 0.00 88 1013.7
20260901102233 76 238 2.0 4.0 0.00 0.01 0.00 88 1013.6
20260901101714 76 238 2.0 3.0 0.00 0.01 0.00 88 1013.6
20260901101212 76 238 2.0 4.0 0.00 0.01 0.00 88 1013.6
20260901100702 76 238 2.0 4.0 0.00 0.01 0.00 88 1013.6
20260901100202 76 238 2.0 3.0 0.00 0.01 0.00 88 1013.6
20260901095657 76 238 2.0 4.0 0.00 0.01 0.00 87 1013.6
20260901095156 76 238 1.0 4.0 0.00 0.01 0.00 87 1013.6
20260901094653 76 238 0.0 4.0 0.00 0.01 0.00 87 1013.5
20260901094149 76 238 2.0 4.0 0.00 0.01 0.00 87 1013.6
20260901093645 76 238 2.0 4.0 0.00 0.01 0.00 87 1013.6
20260901093129 76 238 2.0 4.0 0.00 0.01 0.00 87 1013.5
20260901092632 76 238 2.0 4.0 0.00 0.01 0.00 87 1013.5
20260901092129 76 238 3.0 4.0 0.00 0.01 0.00 87 1013.6
20260901091624 76 238 2.0 5.0 0.00 0.01 0.00 87 1013.7
20260901091056 76 238 2.0 5.0 0.00 0.01 0.00 87 1013.7
20260901090556 76 239 2.0 5.0 0.00 0.02 0.00 87 1013.8
20260901090056 76 239 3.0 4.0 0.00 0.02 0.00 87 1013.7
20260901085555 76 239 3.0 5.0 0.00 0.02 0.00 87 1013.7
20260901085059 76 240 3.0 5.0 0.00 0.03 0.00 87 1013.7
20260901084556 76 240 3.0 5.0 0.00 0.03 0.00 88 1013.6
20260901084532 76 240 3.0 5.0 0.00 0.03 0.00 88 1013.7
20260901083555 76 240 3.0 4.0 0.00 0.03 0.00 88 1013.6
20260901083045 76 240 3.0 4.0 0.00 0.03 0.00 88 1013.6
20260901082524 75 240 3.0 5.0 0.00 0.03 0.00 88 1013.6
20260901082219 75 240 3.0 5.0 0.00 0.03 0.00 88 1013.6
20260901081944 76 240 3.0 4.0 0.00 0.03 0.00 88 1013.6
20260901080955 76 240 3.0 6.0 0.00 0.03 0.00 88 1013.6
20260901080458 76 240 3.0 6.0 0.00 0.03 0.00 87 1013.6
20260901075943 76 243 3.0 4.0 0.00 0.03 0.00 87 1013.6
20260901075439 76 243 3.0 4.0 0.00 0.03 0.00 87 1013.7
20260901074939 76 243 3.0 4.0 0.00 0.03 0.00 86 1013.8
20260901074641 76 243 3.0 4.0 0.00 0.03 0.00 86 1013.9
20260901074141 76 243 3.0 4.0 0.00 0.03 0.00 86 1014.0
20260901073910 76 243 3.0 4.0 0.00 0.03 0.00 86 1014.0
20260901072853 76 243 3.0 4.0 0.00 0.03 0.00 86 1013.9
20260901072622 76 243 3.0 4.0 0.00 0.03 0.00 86 1013.9
20260901071851 76 243 3.0 4.0 0.00 0.03 0.00 86 1013.9
20260901071356 76 244 3.0 4.0 0.00 0.03 0.00 86 1013.9
20260901070848 76 244 3.0 5.0 0.00 0.03 0.00 86 1014.0
20260901070831 76 244 3.0 5.0 0.00 0.03 0.00 86 1014.1
20260901065849 76 244 3.0 4.0 0.00 0.03 0.00 86 1014.0
20260901065603 76 244 3.0 5.0 0.00 0.03 0.00 86 1014.1
20260901064844 76 244 3.0 5.0 0.00 0.03 0.00 86 1014.1
20260901064601 76 244 3.0 5.0 0.00 0.03 0.00 86 1014.0
20260901063829 76 245 3.0 4.0 0.00 0.03 0.00 86 1014.0
20260901063323 76 245 2.0 4.0 0.00 0.03 0.00 86 1014.0
20260901062820 76 245 2.0 4.0 0.00 0.03 0.00 87 1014.1
20260901062547 75 245 3.0 5.0 0.00 0.03 0.00 88 1014.0
20260901061805 75 246 3.0 5.0 0.00 0.03 0.00 89 1013.9
20260901061515 75 246 3.0 4.0 0.00 0.03 0.00 89 1013.9
20260901060734 74 248 2.0 4.0 0.00 0.03 0.00 89 1013.9
20260901060225 74 248 2.0 4.0 0.00 0.03 0.00 89 1014.0
20260901055725 74 248 3.0 5.0 0.00 0.03 0.00 89 1014.1
20260901055207 74 248 3.0 5.0 0.00 0.03 0.00 89 1014.1
20260901054706 74 266 3.0 4.0 0.00 0.03 0.00 90 1014.4
20260901054152 74 266 3.0 4.0 0.00 0.03 0.00 90 1014.5
20260901053651 74 266 3.0 4.0 0.00 0.03 0.00 90 1014.5
20260901053151 74 274 3.0 4.0 0.00 0.03 0.00 89 1014.6
20260901052914 74 275 3.0 4.0 0.00 0.03 0.00 90 1014.6
20260901052153 74 276 2.0 5.0 0.00 0.03 0.00 90 1014.7
20260901051627 74 278 1.0 4.0 0.00 0.03 0.00 91 1014.6
20260901051118 74 278 2.0 4.0 0.00 0.03 0.00 91 1014.6
20260901050831 73 278 2.0 3.0 0.00 0.03 0.00 91 1014.5
20260901050059 73 278 2.0 3.0 0.00 0.03 0.00 91 1014.6
20260901045556 73 279 2.0 3.0 0.00 0.03 0.00 91 1014.6
20260901045056 73 279 2.0 4.0 0.00 0.03 0.00 91 1014.6
20260901044549 73 279 1.0 4.0 0.00 0.03 0.00 91 1014.6
20260901044050 73 279 0.0 3.0 0.00 0.03 0.00 91 1014.5
20260901043536 73 279 0.0 0.0 0.00 0.03 0.00 90 1014.5
20260901043048 73 279 0.0 0.0 0.01 0.03 0.00 90 1014.5
20260901041954 73 279 0.0 0.0 0.01 0.04 0.00 90 1014.5
20260901041451 73 279 0.0 2.0 0.01 0.04 0.00 90 1014.7
20260901041206 73 279 1.0 3.0 0.01 0.04 0.00 90 1014.7
20260901040448 73 279 1.0 3.0 0.01 0.04 0.00 90 1014.7
20260901035947 73 279 0.0 2.0 0.01 0.04 0.04 90 1014.6
20260901035447 73 279 0.0 0.0 0.01 0.04 0.04 91 1014.6
20260901034940 73 279 0.0 0.0 0.01 0.04 0.04 92 1014.7
20260901034422 72 279 0.0 0.0 0.01 0.05 0.04 92 1014.7
20260901033914 72 279 0.0 0.0 0.01 0.05 0.04 93 1014.6
20260901033356 72 279 0.0 0.0 0.00 0.05 0.03 93 1014.6
20260901032850 71 279 0.0 0.0 0.00 0.05 0.03 94 1014.7
20260901032347 71 279 0.0 0.0 0.00 0.06 0.03 94 1014.7
20260901032108 71 279 0.0 0.0 0.00 0.06 0.03 94 1014.7
20260901031606 72 279 0.0 0.0 0.00 0.06 0.03 94 1014.6
20260901030827 72 279 0.0 0.0 0.00 0.06 0.03 93 1014.6
20260901030325 72 279 0.0 0.0 0.00 0.07 0.03 93 1014.7
20260901025815 72 279 0.0 0.0 0.00 0.07 0.03 93 1014.8
20260901025320 73 279 0.0 0.0 0.00 0.07 0.03 93 1014.8
20260901024743 73 279 0.0 0.0 0.00 0.07 0.03 93 1014.8
20260901024219 73 279 0.0 0.0 0.00 0.07 0.03 92 1014.7
20260901023645 73 279 0.0 0.0 0.00 0.07 0.03 91 1014.7
20260901023405 73 279 0.0 0.0 0.00 0.07 0.03 91 1014.7
20260901022641 73 279 0.0 0.0 0.00 0.07 0.03 91 1014.8
20260901022138 73 279 0.0 0.0 0.00 0.07 0.03 91 1014.8
20260901021640 73 279 0.0 0.0 0.00 0.07 0.03 91 1014.9
20260901021117 73 279 0.0 0.0 0.00 0.07 0.03 90 1014.8
20260901020548 73 279 0.0 0.0 0.00 0.07 0.03 91 1014.6
20260901020045 74 279 0.0 0.0 0.00 0.07 0.03 91 1014.7
20260901015541 74 279 0.0 0.0 0.00 0.07 0.03 90 1014.8
20260901015259 74 279 0.0 0.0 0.00 0.07 0.03 90 1014.8
20260901014747 74 279 0.0 0.0 0.00 0.07 0.03 90 1014.8
20260901014012 74 279 0.0 0.0 0.00 0.07 0.03 90 1014.8
20260901013509 74 279 0.0 0.0 0.00 0.07 0.03 90 1014.7
20260901013003 74 279 0.0 0.0 0.00 0.07 0.03 91 1014.7
20260901012505 74 279 0.0 0.0 0.00 0.07 0.03 91 1014.7
20260901011946 74 279 0.0 0.0 0.00 0.07 0.03 92 1014.7
20260901011430 74 279 0.0 0.0 0.00 0.07 0.03 92 1014.6
20260901010913 74 279 0.0 0.0 0.00 0.07 0.03 92 1014.5
20260901010400 74 279 1.0 4.0 0.00 0.07 0.03 91 1014.5
20260901005856 74 279 1.0 4.0 0.00 0.07 0.03 91 1014.3
20260901005342 75 279 0.0 0.0 0.00 0.07 0.03 90 1014.5
20260901004838 75 279 0.0 0.0 0.00 0.07 0.03 90 1014.8
20260901004329 75 279 0.0 0.0 0.00 0.07 0.03 89 1014.8
20260901003829 75 279 0.0 0.0 0.00 0.07 0.03 89 1015.1
20260901003329 75 279 0.0 0.0 0.00 0.07 0.03 88 1015.1
20260901003031 76 279 0.0 0.0 0.00 0.07 0.03 87 1015.1
20260901002316 76 279 0.0 0.0 0.00 0.07 0.03 86 1015.2
20260901001753 76 279 0.0 0.0 0.00 0.07 0.03 86 1015.3
20260901001241 76 279 0.0 0.0 0.00 0.07 0.03 86 1015.4
20260901000741 76 279 0.0 0.0 0.00 0.07 0.03 86 1015.4
20260901000215 77 279 0.0 0.0 0.00 0.07 0.03 85 1015.3
20260831235710 77 279 0.0 0.0 0.00 0.07 0.03 84 1015.4
20260831235207 77 279 0.0 0.0 0.00 0.07 0.03 83 1015.3
20260831234642 77 279 0.0 0.0 0.00 0.07 0.03 83 1015.2
20260831234134 77 279 0.0 0.0 0.00 0.07 0.03 83 1015.2
20260831233631 77 279 0.0 0.0 0.00 0.07 0.03 83 1015.3
20260831233554 77 279 0.0 0.0 0.00 0.07 0.03 82 1015.2
20260831232556 78 279 0.0 0.0 0.00 0.07 0.03 82 1015.2
20260831232051 78 279 0.0 0.0 0.00 0.07 0.03 82 1015.3
20260831231811 78 279 0.0 0.0 0.00 0.07 0.03 81 1015.2
20260831231042 78 279 0.0 0.0 0.00 0.07 0.03 81 1015.2
20260831230537 78 279 0.0 0.0 0.00 0.07 0.03 81 1015.2
20260831230031 78 279 0.0 0.0 0.00 0.07 0.03 80 1015.2
20260831225518 78 279 0.0 0.0 0.00 0.07 0.03 80 1015.2
20260831225019 78 279 0.0 0.0 0.00 0.07 0.03 80 1015.0
20260831224737 78 279 0.0 0.0 0.00 0.07 0.03 80 1015.0
20260831224012 78 279 0.0 0.0 0.00 0.07 0.03 82 1014.9
20260831223503 79 279 0.0 0.0 0.00 0.07 0.03 83 1014.9
20260831222942 79 279 0.0 0.0 0.00 0.07 0.03 82 1015.1
20260831222438 79 280 0.0 0.0 0.00 0.07 0.03 80 1015.5
20260831221926 80 280 0.0 0.0 0.00 0.07 0.03 80 1015.9
20260831221405 80 280 0.0 0.0 0.00 0.07 0.03 80 1016.0
20260831220902 80 280 0.0 0.0 0.00 0.07 0.03 80 1016.0
20260831220359 80 280 0.0 0.0 0.00 0.07 0.03 77 1015.9
20260831215836 80 280 0.0 0.0 0.00 0.07 0.03 76 1016.0
20260831215326 80 280 0.0 0.0 0.00 0.07 0.03 76 1016.1
20260831214823 80 280 0.0 0.0 0.00 0.07 0.03 75 1016.0
20260831214530 80 280 0.0 0.0 0.00 0.07 0.03 75 1016.2
20260831213802 80 280 0.0 0.0 0.00 0.07 0.03 74 1016.1
20260831213233 80 280 0.0 0.0 0.00 0.07 0.03 74 1016.4
20260831212731 81 280 0.0 0.0 0.00 0.07 0.03 73 1016.5
20260831212231 81 280 0.0 0.0 0.00 0.07 0.03 72 1016.5
20260831211730 81 280 0.0 0.0 0.00 0.07 0.03 72 1016.5